FENGYUN 1C DEB, 35169

Orbit data source: Space-Track

FENGYUN 1C DEB, 35169 is space debris in SSO originally from a launch on Mon, 10 May 1999 UTC launched from the Taiyaun Space Center, China (TSC). Fengyun 1C debris stems from the Chinese weather satellite Fengyun-1C, which was intentionally destroyed by a Chinese anti-satellite missile in 2007. This event dramatically increased the amount of space debris, with thousands of trackable fragments posing hazards to satellites and human spaceflight. The Fengyun 1C debris cloud has become a focal point in discussions about space sustainability and the need for international regulations to prevent the creation of new debris.

Loading next visibility...
Identifier
35169, 1999-025DMZ
Orbit
SSO
Country
Flag of CNCN / PRC
Related business
Manufacturer
Unknown
Mission
Spacecraft
Bus & Motor
Unknown
Mass
Unknown
Launch date (UTC)
1999-05-10 (27 years ago)
Launch vehicle
Unknown
Launch site
Taiyaun Space Center, China (TSC)
Object type
Payload
Rocket body
Debris
Shape & HBR
Unknown shape, 0.1 m
Radar Cross Section
Small (<0.1 m²)

Expand to show TLE details & history
Last TLE update: 2 weeks ago

TLE from 2 weeks ago
0 FENGYUN 1C DEB
1 35169U 99025DMZ 26241.50400413  .00003266  00000-0  59127-3 0  9995
2 35169  99.1076 155.6772 0149416  39.7338 321.4691 14.60135205695697
Epoch: 2026-08-29T12:05Z
TLE epoch observation values (Epoch: 2026-08-29T12:05:45.956Z)
Latitude
-0.00005°
Longitude
-3.47727°
Altitude
613.653 km
Speed
7.596 km/s
True Right ascension
10h 22m 42s
True Declination
0° 00' 00"
Sunlit
Object was in daylight at epoch
Visualization orbit readout
Latitude
Unknown
Longitude
Unknown
Altitude
Unknown
Speed
Unknown
Apparent Right ascension
Unknown
Apparent Declination
Unknown
Sunlit
N/A
Visualization observer readout
Local Sidereal Time
13:17:50
Azimuth
Unknown
Elevation
Unknown
Doppler factor
Unknown
Orbital elements
Apogee altitude
795.469 km
Perigee altitude
584.254 km
Semi-major axis
7,067.999 km
Eccentricity
0.01494
Inclination
99.1076°
RAAN
155.6772°
Arg. of periapsis
39.7338°
True anomaly
320.38678°
Mean anomaly
321.4691°
Eccentric anomaly
320.92953°
Mean motion
3.65257 °/min
Orbital period
98.56 mins
BSTAR
0.00059127
Loading maneuver chart data...
Computing Atmospheric mass density...
Loading historical data...
Loading historical data...
Loading historical data...
Loading historical data...
Loading historical data...
Loading historical data...
Loading historical data...

Documentation

Showing up to 5 results
|